Location: Dhuey Hill
(44.6378°N, 87.6243°W)
Time: 21:42:02
(UTC+00:00)

Daily predictions for brighter satellites

Satellite Brightness Start Highest point End
(mag) Time Altitude Azimuth Time Altitude Azimuth Time Altitude Azimuth
Cosmos 2221 2.5 12:02:54 10° N 12:07:03 78° E 12:11:11 10° SSE
Cosmos 2266 Rocket 4.3 12:01:45 10° S 12:08:05 73° E 12:14:24 10° NNE
Orbus 7S? 2.7 12:08:50 18° NW 12:10:35 66° NE 12:13:38 10° SE
Cosmos 1125 Rocket 3.7 12:06:53 10° NNW 12:12:09 73° ENE 12:17:21 10° SSE
Cosmos 1484 Rocket 2.8 12:09:16 10° N 12:12:29 39° WNW 12:15:38 10° SW
Cosmos 192 4.3 12:09:05 10° NNW 12:14:01 89° ENE 12:18:55 10° SSE
Cosmos 1758 Rocket 3.7 12:11:00 10° SSW 12:15:18 51° WNW 12:19:36 10° N
Cosmos 1437 Rocket 2.5 12:17:29 10° N 12:20:56 83° E 12:24:24 10° SSE
Helios 1A Rocket 4.2 12:23:23 10° SW 12:25:23 15° W 12:26:49 12° WNW
ISS -0.7 12:24:11 10° S 12:26:40 19° SE 12:29:10 10° E
Cosmos 2360 Rocket 2.8 12:23:26 10° NW 12:28:32 36° WSW 12:33:35 10° S
[s.n.66875] 4.5 12:28:01 10° S 12:29:29 14° SSE 12:30:57 10° ESE
[s.n.66876] 4.4 12:29:08 10° S 12:30:39 14° SSE 12:32:10 10° ESE
[s.n.66874] 4.4 12:29:54 10° S 12:31:26 15° SSE 12:32:59 10° ESE
CZ-2D R/B 2.7 12:28:23 10° N 12:31:34 84° WNW 12:34:44 10° SSW
[s.n.66872] 4.4 12:30:41 10° S 12:32:14 15° SSE 12:33:48 10° ESE
[s.n.66871] 4.4 12:31:13 10° S 12:32:47 15° SSE 12:34:21 10° ESE
[s.n.66870] 4.4 12:32:00 10° SSW 12:33:36 15° SSE 12:35:12 10° ESE
ATLAS 3B R/B 3.5 12:26:05 10° NNW 12:33:50 57° NE 12:41:10 10° SE
[s.n.66869] 4.4 12:32:46 10° SSW 12:34:23 15° SSE 12:36:00 10° ESE
Cosmos 2333 Rocket 3.5 12:30:11 10° NW 12:34:32 22° W 12:38:50 10° SSW
Cosmos 1833 4.5 12:29:45 10° SW 12:35:09 45° WNW 12:40:38 10° NNE
[s.n.66867] 4.4 12:34:09 10° SSW 12:35:48 16° SSE 12:37:27 10° ESE
COSMO-SKYMED 1 4.2 12:34:05 10° WSW 12:36:15 14° W 12:38:26 10° WNW
Cosmos 405 Rocket 3.7 12:34:10 10° WSW 12:36:31 18° WNW 12:38:53 10° NNW
[s.n.66866] 4.4 12:34:52 10° SSW 12:36:32 16° SSE 12:38:13 10° ESE
[s.n.66865] 4.4 12:35:24 10° SSW 12:37:05 16° SSE 12:38:46 10° ESE
Cosmos 1707 2.1 12:34:25 10° NNW 12:37:32 63° W 12:40:37 10° S
[s.n.66860] 4.4 12:36:02 10° SSW 12:37:45 16° SSE 12:39:27 10° ESE
[s.n.66864] 4.4 12:36:40 10° SSW 12:38:22 16° SSE 12:40:06 10° ESE
BREEZE-M DEB (TANK) 3.9 12:36:01 10° WNW 12:38:51 48° NNE 12:46:01 10° E
[s.n.66863] 4.4 12:37:15 10° SSW 12:38:58 16° SSE 12:40:42 10° ESE
[s.n.66861] 4.4 12:38:03 10° SSW 12:39:47 16° SSE 12:41:33 10° ESE
[s.n.66862] 4.4 12:38:41 10° SSW 12:40:26 17° SSE 12:42:13 10° ESE
Cosmos 2237 Rocket 3.8 12:35:46 10° N 12:40:38 29° NE 12:45:30 10° ESE
[s.n.66859] 4.4 12:39:22 10° SSW 12:41:08 17° SSE 12:42:55 10° ESE
SJ-12 3.7 12:37:24 10° N 12:41:14 77° WNW 12:45:01 10° SSW
[s.n.66858] 4.4 12:40:01 10° SSW 12:41:49 17° SSE 12:43:37 10° ESE
[s.n.66857] 4.4 12:40:35 10° SSW 12:42:24 17° SSE 12:44:12 10° ESE
[s.n.66856] 4.4 12:41:08 10° SSW 12:42:57 17° SSE 12:44:46 10° ESE
[s.n.66855] 4.4 12:41:48 10° SSW 12:43:37 17° SSE 12:45:28 10° ESE
MOS 1 Rocket 3.7 12:38:25 10° NNE 12:43:49 88° W 12:49:03 10° SSW
Cosmos 2219 Rocket 2.6 12:39:53 10° NW 12:45:14 45° WSW 12:50:31 10° S
ARIANE 5 R/B 2.6 12:42:12 10° NNE 12:47:26 79° WNW 12:52:38 10° SSW
Cosmos 1607 4.0 22:30:28 10° NNW 22:36:41 64° NE 22:42:55 10° SE
SMAP 3.6 22:34:29 10° SE 22:38:46 38° ENE 22:43:05 10° N
Cosmos 1315 Rocket 4.3 22:36:34 10° SW 22:40:06 36° WNW 22:43:40 10° N
Gbstr 26 Del rocket 3.2 22:37:26 10° SW 22:41:37 53° SE 22:45:20 10° ENE
Cosmos 1626 Rocket 3.6 22:38:54 10° N 22:43:14 89° W 22:47:31 10° S
Landsat 7 4.4 22:39:23 10° SE 22:43:31 33° ENE 22:47:41 10° N
CBERS-1 4.0 22:39:18 10° SSE 22:44:24 77° ENE 22:49:31 10° NNW
USA 290 2.2 22:41:26 10° NNW 22:44:40 65° ENE 22:47:54 10° SSE
Cosmos 1484 Rocket 2.5 22:42:30 10° SSE 22:46:00 89° ENE 22:49:31 10° NNW
SL-08 ROCKET BODY 4.4 22:41:13 10° N 22:47:13 79° E 22:53:16 10° S
Meteor 1-20 Rocket 4.3 22:43:00 10° N 22:48:21 52° ENE 22:53:40 10° SSE
Lacrosse 5 rocket 3.2 22:46:23 10° NW 22:48:41 15° NNW 22:50:58 10° NNE
Cosmos 1606 Rocket 4.3 22:46:20 10° SSE 22:50:13 32° E 22:54:10 10° NNE
Cosmos 724 4.3 22:44:46 10° NNW 22:50:51 80° NE 22:56:44 10° SE
NOSS 3-2 (A) 4.1 22:52:37 10° WSW 22:57:25 41° NW 23:03:10 10° NNE
Cosmos 2297 Rocket 2.3 22:52:22 10° NNW 22:58:04 87° WSW 23:03:44 10° SSE
CZ-2D R/B 3.5 22:55:31 10° SE 22:58:16 29° ENE 23:01:04 10° N
NOSS 3-2 (C) 3.1 22:53:57 10° SW 22:58:54 87° NW 23:04:51 10° NE
Cosmos 1544 Rocket 4.0 22:55:03 10° SSW 22:59:25 65° W 23:03:50 10° N
NOSS 2-2 (E) 4.4 22:57:40 10° WSW 23:00:34 27° NW 23:03:15 10° NNE
Lacrosse 4 Rocket 4.1 23:00:23 10° NW 23:00:54 10° NW 23:01:26 10° NNW
Cosmos 2266 Rocket 3.9 22:55:16 10° N 23:01:22 63° E 23:07:20 10° SSE
CZ-4C R/B 3.0 22:54:56 10° NW 23:02:00 75° NE 23:10:45 10° SE
Thor Agena Rocket 3.6 23:02:25 10° SSE 23:07:38 88° ENE 23:12:49 10° NNW
Cosmos 1503 Rocket 4.0 23:02:39 10° SSW 23:07:54 90° SW 23:13:08 10° NNE
Cosmos 1461 3.2 23:07:11 10° SW 23:11:00 56° NW 23:14:54 10° NNE
Cosmos 1726 Rocket 4.1 23:09:31 10° SSE 23:13:54 43° E 23:18:15 10° NNE
Cosmos 1743 3.3 23:12:53 10° NNW 23:16:03 49° W 23:19:10 10° S
Cosmos 1933 3.1 23:12:25 10° S 23:16:12 66° E 23:20:01 10° NNE
Cosmos 1354 Rocket 4.0 23:12:27 10° SSW 23:17:42 78° ESE 23:22:58 10° NNE
Cosmos 2219 4.1 23:13:25 10° N 23:18:17 28° NE 23:23:09 10° ESE
GEOS 3 Rocket 3.8 23:13:16 10° NE 23:18:40 82° NW 23:24:02 10° SW
Cosmos 1980 Rocket 2.8 23:15:40 10° S 23:20:48 37° ESE 23:25:04 14° NE
Okean 1-7 Rocket 3.5 23:17:15 10° N 23:21:39 84° E 23:26:00 10° S
Cosmos 1602 Rocket 4.0 23:17:55 10° NNW 23:22:16 65° W 23:26:32 10° S
SJ-12 3.6 23:19:56 10° SSE 23:23:40 68° ENE 23:27:26 10° N
Cosmos 1844 Rocket 4.5 23:21:47 10° NNE 23:23:58 12° NE 23:23:58 12° NE
Cosmos-2242 4.1 23:20:57 10° SE 23:24:18 23° E 23:25:43 19° ENE
CORIOLIS 4.4 23:20:29 10° S 23:25:48 74° WSW 23:31:10 10° NNW
YAOGAN 1 3.5 23:23:04 10° ESE 23:26:32 25° ENE 23:30:01 10° NNE
IRIDIUM 104 4.5 23:21:52 10° N 23:27:06 78° W 23:32:18 10° S
Cosmos 1898 Rocket 4.4 23:24:09 10° SSE 23:28:29 28° E 23:30:53 20° ENE
Meteor 1-5 Rocket 4.1 23:23:29 10° N 23:28:46 57° ENE 23:34:09 10° SSE
Meteor 1-25 Rocket 4.3 23:23:53 10° N 23:29:45 88° E 23:35:30 10° S
SKYMED 2 4.1 23:27:41 14° NNE 23:31:04 37° E 23:35:05 10° SSE
Cosmos 2263 Rocket 2.4 23:27:04 10° NNW 23:32:34 47° ENE 23:38:01 10° SE
ERS-1 4.4 23:27:39 10° SSE 23:32:40 78° ENE 23:37:38 10° NNW
Cosmos 2151 3.9 23:28:40 10° NNW 23:32:42 49° W 23:36:42 10° SSW
SAR-Lupe-4 3.6 23:30:03 10° SSE 23:33:35 83° WSW 23:37:10 10° NNW
SL-16 R/B 3.7 23:28:36 10° N 23:34:24 42° WNW 23:40:09 10° SW
CENTAUR R/B 4.3 23:34:53 10° WNW 23:39:42 22° NNW 23:45:19 10° NNE
Cosmos 372 Rocket 4.3 23:34:55 10° S 23:39:46 43° ESE 23:42:48 21° NE
IRS-1C 4.4 23:37:27 10° S 23:42:45 73° WSW 23:48:06 10° NNW
NOSS 2-3 (C) 2.8 23:40:11 10° SSW 23:43:39 78° SE 23:45:08 32° NE
SAR-Lupe-1 4.3 23:41:07 10° S 23:44:42 70° WSW 23:48:19 10° NNW
Cosmos 1953 Rocket 3.5 23:41:50 10° N 23:46:16 65° E 23:50:40 10° SSE
Cosmos 1937 Rocket 4.2 23:42:25 10° SSE 23:46:53 30° E 23:47:52 28° E
Cosmos 2227 Rocket 2.3 23:43:52 10° NNW 23:49:32 79° WSW 23:55:10 10° SSE
BREEZE-M DEB (TANK) 1.7 23:49:02 10° W 23:50:43 44° NNW 23:50:43 44° NNW
MOS 1 Rocket 3.6 23:47:02 10° S 23:51:55 77° W 23:57:07 10° NNW
Meteor 2-20 Rocket 4.5 23:47:45 10° SSE 23:53:49 55° E 23:59:40 10° NNE
Cosmos 990 Rocket 4.4 23:48:57 10° SSW 23:54:00 61° WNW 23:59:02 10° NNE
Cosmos 1825 Rocket 4.1 23:51:05 10° NNW 23:55:21 58° W 23:59:33 10° S
